[[{"header":{"parameterUnit":"m.s-1","parameterCategory":2,"la1":30.2991,"la2":30.254,"lo1":-89.0895,"lo2":-89.0444,"dy":0.0017,"dx":0.0017,"nx":28,"ny":28,"refTime":"2025-07-15T09:00:00:Z","depth":"0","parameterNumber":2,"parameterNumberName":"U-component_of_CURRENTS"},"data":[0,0,0,0,0,0,0,0,0,0,0,0,0,0,0,0,0,0,0,0,0,0,0,0,0,0,0,0,0,0,0,0,0,0,0,0,0,0,0,0,0,0,0,0,0,0,0,0,0,0,0,0,0,0,0,0,0,0,0.2289,0.2286,0,0.2037,0.2034,0.2032,0.1929,0.1929,0.1929,0.193,0.1906,0.1905,0.1905,0,0,0,0,0,0,0,0,0,0,0,0,0,0.2647,0.2642,0.2289,0.2286,0.2282,0.2037,0.2034,0.2031,0.1929,0.1929,0.1929,0.193,0.1907,0.1906,0.1904,0,0,0,0,0,0,0,0,0,0,0,0,0,0.2456,0.264,0.229,0.2199,0.2189,0.2038,0.2034,0.203,0.1929,0.1929,0.193,0.193,0.1907,0.1906,0.1904,0.1887,0,0,0.19,0.19,0,0,0,0,0,0,0,0,0.2467,0.2443,0.2216,0.2205,0.2193,0.2012,0.2151,0.1993,0.1929,0.2031,0.193,0.193,0.1961,0.1955,0.1907,0.1886,0.1885,0.19,0.1899,0.1899,0.1898,0,0,0,0,0,0,0,0.2481,0.2453,0.2192,0.2212,0.2198,0.2159,0.2133,0.212,0.2003,0.2022,0.2013,0.198,0.1956,0.1909,0.1907,0.1885,0.19,0.1899,0.1898,0.1898,0.1876,0.1877,0,0,0,0,0,0,0.2505,0.2466,0.22,0.2184,0.233,0.2152,0.2123,0.2072,0.1998,0.1984,0.198,0.1976,0.1911,0.1908,0.1906,0.1902,0.1899,0.1897,0.1897,0.1876,0.1876,0.1877,0,0,0,0,0,0,0.2514,0.2484,0.221,0.2319,0.2281,0.2146,0.2089,0.2067,0.2017,0.1963,0.1954,0.1953,0.1911,0.1908,0.1874,0.19,0.1897,0.1896,0.1876,0.1876,0.1877,0.1882,0,0,0,0,0,0,0.2525,0.2488,0.2466,0.2319,0.2275,0.2116,0.2087,0.2061,0.1995,0.1988,0.1938,0.1935,0.1911,0.1876,0.1872,0.1898,0.1895,0.1876,0.1876,0.1876,0.1882,0.1883,0.1884,0,0,0,0,0,0.2538,0.2492,0.2466,0.2434,0.2246,0.2115,0.2088,0.1998,0.1994,0.196,0.1923,0.1936,0.1878,0.1873,0.187,0.1896,0.1875,0.1876,0.1876,0.1882,0.1883,0.1884,0,0,0,0,0,0,0.2625,0.2473,0.2441,0.2349,0.2245,0.2096,0.2042,0.2003,0.1941,0.194,0.1915,0.1908,0.1888,0.1891,0.1886,0.1893,0.189,0.189,0.1895,0.1896,0.1897,0.1912,0.1894,0,0,0,0,0,0.2639,0.2573,0.2427,0.2359,0.2298,0.2182,0.2122,0.2061,0.198,0.1951,0.1919,0.1902,0.1885,0.1888,0.1858,0.1861,0.1891,0.1885,0.1886,0.1886,0.1897,0.1962,0.197,0.1878,0.1878,0.1878,0,0,0.2658,0.2564,0.2528,0.2376,0.2281,0.2188,0.2145,0.2041,0.1995,0.1966,0.1907,0.1888,0.1879,0.1861,0.186,0.1873,0.1924,0.1887,0.1888,0.1898,0.1964,0.1973,0.1981,0.1879,0.1879,0.1879,0,0,0.2653,0.2569,0.2509,0.2411,0.2269,0.2194,0.2173,0.2031,0.1995,0.1931,0.1912,0.1908,0.1867,0.1871,0.1873,0.1872,0.191,0.1877,0.1913,0.1976,0.1985,0.1993,0.2027,0.2038,0.1899,0.1899,0.1899,0,0.268,0.257,0.2476,0.2379,0.229,0.2205,0.2113,0.2064,0.1946,0.1935,0.1918,0.1883,0.1876,0.1894,0.1889,0.1878,0.1908,0.1907,0.1979,0.1988,0.1996,0.203,0.2042,0.1899,0.1899,0.1899,0.1899,0,0.2617,0.2523,0.2467,0.2326,0.2239,0.2134,0.204,0.1998,0.1963,0.1927,0.1916,0.1897,0.1893,0.1901,0.189,0.1953,0.1952,0.1956,0.1979,0.2006,0.2039,0.2052,0.19,0.1899,0.1899,0.1899,0,0,0.2647,0.2464,0.2438,0.2338,0.2187,0.2082,0.2048,0.1967,0.1948,0.1914,0.1911,0.1908,0.1925,0.193,0.1941,0.2004,0.2079,0.2012,0.2015,0.2051,0.2205,0.2139,0.2146,0.2102,0.2105,0.2107,0.22,0,0.2606,0.2444,0.2369,0.2198,0.2075,0.1999,0.1961,0.1906,0.1889,0.1879,0.1927,0.1914,0.1934,0.1935,0.2009,0.2049,0.2115,0.2052,0.217,0.2173,0.2116,0.216,0.2024,0.209,0.2212,0.2214,0.2216,0,0.254,0.2424,0.228,0.2082,0.2023,0.1939,0.1838,0.1802,0.1828,0.1827,0.1882,0.1908,0.1995,0.2,0.2141,0.2101,0.2159,0.2201,0.2206,0.2155,0.2131,0.2086,0.2109,0.1948,0.2235,0.2234,0.2232,0,0.2549,0.2334,0.2221,0.2141,0.1953,0.1887,0.1809,0.179,0.1769,0.1816,0.1828,0.1928,0.1974,0.2082,0.2176,0.2169,0.2322,0.2323,0.232,0.2315,0.2228,0.221,0.2114,0.2432,0.2432,0.2432,0.2432,0,0.2496,0.2371,0.2197,0.2108,0.1945,0.1842,0.1741,0.1709,0.1719,0.1728,0.1809,0.1855,0.2002,0.2105,0.2192,0.2293,0.2345,0.2336,0.2345,0.2221,0.2203,0.2081,0.2011,0.2435,0.2435,0.2434,0.2433,0,0.2495,0.2407,0.2223,0.2019,0.1937,0.1822,0.1655,0.1631,0.1642,0.1673,0.1696,0.1819,0.1955,0.208,0.2247,0.2295,0.231,0.2415,0.2241,0.2227,0.2058,0.1994,0.1967,0.1966,0.2435,0.2434,0.2433,0,0.2472,0.2395,0.2162,0.206,0.1946,0.1768,0.169,0.1609,0.1605,0.1658,0.1699,0.1819,0.1923,0.2115,0.2223,0.2352,0.2272,0.2266,0.223,0.2034,0.1971,0.194,0.1941,0.2116,0.2112,0.211,0.2108,0,0.2402,0.2355,0.2218,0.2045,0.1901,0.1758,0.1633,0.1609,0.1598,0.1621,0.1707,0.1783,0.1944,0.2012,0.2135,0.2203,0.2098,0.2213,0.2069,0.176,0.1666,0.1672,0.2051,0.2083,0.2086,0.2087,0.2089,0.209,0.2347,0.2271,0.2151,0.1981,0.1865,0.1796,0.1701,0.1649,0.1637,0.1662,0.1712,0.1761,0.1754,0.1924,0.198,0.187,0.1983,0.1776,0.1733,0.1735,0.1667,0.1974,0.1976,0.1977,0.1979,0.198,0.1981,0,0.2245,0.2202,0.2083,0.1921,0.1857,0.1788,0.1706,0.1655,0.1659,0.1646,0.1668,0.1587,0.1552,0.1543,0.1447,0.1362,0.1419,0.1283,0.118,0.1231,0.1534,0.1445,0.1258,0.1258,0.1258,0.1258,0.1259,0.1259,0.2181,0.2092,0.2071,0.1954,0.1872,0.1772,0.1739,0.1685,0.164,0.1543,0.1456,0.1422,0.1232,0.0972,0.0791,0.081,0.0777,0.0728,0.0818,0.0928,0.097,0.1009,0.0907,0.061,0.0609,0.05,0.0498,0.0496]},{"header":{"parameterUnit":"m.s-1","parameterCategory":2,"la1":30.2991,"la2":30.254,"lo1":-89.0895,"lo2":-89.0444,"dy":0.0017,"dx":0.0017,"nx":28,"ny":28,"refTime":"2025-07-15T09:00:00:Z","depth":"0","parameterNumber":3,"parameterNumberName":"V-component_of_CURRENTS"},"data":[0,0,0,0,0,0,0,0,0,0,0,0,0,0,0,0,0,0,0,0,0,0,0,0,0,0,0,0,0,0,0,0,0,0,0,0,0,0,0,0,0,0,0,0,0,0,0,0,0,0,0,0,0,0,0,0,0,0,-0.1555,-0.1553,0,-0.1464,-0.1464,-0.1463,-0.1447,-0.1448,-0.1448,-0.1448,-0.155,-0.1553,-0.1555,0,0,0,0,0,0,0,0,0,0,0,0,0,-0.1685,-0.1683,-0.1555,-0.1553,-0.1552,-0.1465,-0.1464,-0.1463,-0.1447,-0.1448,-0.1448,-0.1448,-0.155,-0.1552,-0.1555,0,0,0,0,0,0,0,0,0,0,0,0,0,-0.162,-0.1683,-0.1555,-0.153,-0.1526,-0.1465,-0.1464,-0.1463,-0.1447,-0.1448,-0.1448,-0.1449,-0.1549,-0.1552,-0.1556,-0.1568,0,0,-0.1567,-0.1568,0,0,0,0,0,0,0,0,-0.1623,-0.1616,-0.1535,-0.1531,-0.1527,-0.1464,-0.1547,-0.1506,-0.1447,-0.1482,-0.1448,-0.1449,-0.1536,-0.154,-0.1526,-0.1573,-0.1578,-0.1567,-0.1569,-0.1571,-0.1572,0,0,0,0,0,0,0,-0.1628,-0.1619,-0.1524,-0.1533,-0.1528,-0.1513,-0.1505,-0.1538,-0.1515,-0.1479,-0.1477,-0.1459,-0.1536,-0.1523,-0.1529,-0.1579,-0.1567,-0.157,-0.1572,-0.1574,-0.1546,-0.1543,0,0,0,0,0,0,-0.163,-0.1623,-0.1527,-0.1521,-0.1572,-0.151,-0.1501,-0.1487,-0.151,-0.1511,-0.1459,-0.1458,-0.1516,-0.1525,-0.1533,-0.1492,-0.1571,-0.1574,-0.1576,-0.1549,-0.1546,-0.1542,0,0,0,0,0,0,-0.1634,-0.1623,-0.153,-0.1566,-0.1553,-0.1507,-0.1492,-0.1485,-0.1467,-0.1491,-0.1497,-0.1446,-0.1517,-0.1528,-0.1525,-0.1499,-0.1576,-0.1579,-0.1552,-0.1548,-0.1544,-0.1449,0,0,0,0,0,0,-0.1638,-0.1625,-0.1619,-0.1566,-0.1551,-0.1491,-0.149,-0.1483,-0.1453,-0.1453,-0.1483,-0.1492,-0.1518,-0.1519,-0.1529,-0.1505,-0.1582,-0.1556,-0.155,-0.1545,-0.1456,-0.1442,-0.143,0,0,0,0,0,-0.1643,-0.1637,-0.1619,-0.1607,-0.1543,-0.149,-0.1481,-0.1453,-0.1452,-0.1441,-0.1437,-0.1491,-0.1491,-0.152,-0.1532,-0.1509,-0.1559,-0.1552,-0.1546,-0.1461,-0.1444,-0.143,0,0,0,0,0,0,-0.1698,-0.1633,-0.1612,-0.1589,-0.1538,-0.1485,-0.147,-0.1449,-0.1434,-0.144,-0.1465,-0.1473,-0.1453,-0.1488,-0.1519,-0.1477,-0.1531,-0.1526,-0.1462,-0.1447,-0.1434,-0.1443,-0.1585,0,0,0,0,0,-0.1703,-0.1682,-0.1613,-0.1596,-0.1567,-0.1517,-0.1493,-0.1471,-0.1445,-0.1438,-0.1446,-0.1449,-0.1434,-0.1448,-0.1448,-0.1446,-0.1451,-0.1431,-0.1418,-0.1407,-0.1417,-0.1368,-0.1353,-0.1521,-0.1521,-0.1521,0,0,-0.1723,-0.1682,-0.1673,-0.1606,-0.1567,-0.1519,-0.1505,-0.1467,-0.1429,-0.1457,-0.1422,-0.1411,-0.1418,-0.1389,-0.1386,-0.1421,-0.1355,-0.1399,-0.139,-0.1406,-0.136,-0.1344,-0.133,-0.1516,-0.1517,-0.1518,0,0,-0.1747,-0.1709,-0.1693,-0.1638,-0.157,-0.1531,-0.1517,-0.1453,-0.1425,-0.1383,-0.1373,-0.1334,-0.1343,-0.1316,-0.131,-0.1231,-0.1279,-0.1237,-0.1198,-0.1149,-0.1136,-0.1124,-0.1086,-0.1072,-0.1241,-0.1241,-0.1241,0,-0.1771,-0.1725,-0.1682,-0.1635,-0.1577,-0.1533,-0.1481,-0.1448,-0.1392,-0.1357,-0.1367,-0.129,-0.13,-0.1235,-0.1197,-0.1205,-0.1194,-0.1261,-0.1134,-0.1123,-0.1113,-0.1077,-0.1063,-0.1236,-0.1236,-0.1237,-0.1238,0,-0.1767,-0.1716,-0.1697,-0.1617,-0.1561,-0.1508,-0.1435,-0.1392,-0.1353,-0.1312,-0.1234,-0.121,-0.1168,-0.1148,-0.1156,-0.1076,-0.1095,-0.1115,-0.118,-0.109,-0.1058,-0.1045,-0.1228,-0.123,-0.1232,-0.1233,0,0,-0.1841,-0.1716,-0.1708,-0.1618,-0.1531,-0.1459,-0.1411,-0.1318,-0.1249,-0.1217,-0.1132,-0.1081,-0.1068,-0.1057,-0.1045,-0.1005,-0.0907,-0.1034,-0.1034,-0.1009,-0.0804,-0.0781,-0.0765,-0.0909,-0.0907,-0.0905,-0.0804,0,-0.1836,-0.1736,-0.1682,-0.1551,-0.1464,-0.1385,-0.1314,-0.1235,-0.1183,-0.1103,-0.1073,-0.1003,-0.1035,-0.0994,-0.096,-0.092,-0.0872,-0.0933,-0.0886,-0.0885,-0.0885,-0.0749,-0.0669,-0.0569,-0.0791,-0.0789,-0.0788,0,-0.1836,-0.1747,-0.1641,-0.1432,-0.1386,-0.1307,-0.1141,-0.1079,-0.0999,-0.0963,-0.0927,-0.0916,-0.0858,-0.089,-0.0806,-0.0848,-0.0821,-0.0795,-0.0791,-0.0802,-0.0837,-0.0698,-0.0538,-0.0501,-0.0768,-0.077,-0.0771,0,-0.1858,-0.1694,-0.1592,-0.1527,-0.1332,-0.1241,-0.1135,-0.1031,-0.0948,-0.0886,-0.084,-0.0798,-0.0759,-0.073,-0.071,-0.0749,-0.0614,-0.0661,-0.0611,-0.0611,-0.0551,-0.0549,-0.0364,-0.0582,-0.0582,-0.0582,-0.0582,0,-0.1844,-0.1736,-0.1569,-0.1494,-0.1295,-0.1189,-0.1009,-0.0925,-0.0829,-0.0737,-0.0767,-0.0704,-0.0716,-0.0665,-0.0662,-0.0588,-0.0576,-0.0575,-0.0567,-0.0512,-0.0508,-0.0486,-0.0503,-0.0578,-0.0579,-0.058,-0.0581,0,-0.1853,-0.1781,-0.1611,-0.1395,-0.1297,-0.1153,-0.0901,-0.0803,-0.0735,-0.063,-0.0616,-0.0606,-0.0553,-0.0548,-0.0484,-0.0504,-0.0391,-0.0422,-0.0365,-0.0352,-0.0302,-0.0318,-0.0172,-0.0084,-0.0352,-0.035,-0.0349,0,-0.1825,-0.1764,-0.1534,-0.1408,-0.1285,-0.1058,-0.0918,-0.0773,-0.0686,-0.0567,-0.0529,-0.0469,-0.043,-0.0341,-0.0327,-0.0283,-0.0284,-0.0211,-0.027,-0.0251,-0.0263,-0.0293,-0.023,-0.0142,-0.014,-0.0137,-0.0135,0,-0.1735,-0.1701,-0.1563,-0.1345,-0.1164,-0.0973,-0.0762,-0.0685,-0.0564,-0.0478,-0.039,-0.035,-0.0267,-0.0193,-0.015,-0.0137,-0.0144,-0.0166,-0.0136,-0.0063,-0.0089,-0.0017,-0.0279,-0.0115,-0.0117,-0.0119,-0.012,-0.012,-0.1643,-0.1559,-0.1427,-0.1211,-0.1057,-0.0925,-0.0776,-0.0628,-0.0497,-0.0361,-0.0314,-0.0208,-0.0095,-0.0025,-0.0002,0.0075,0.0019,0.0072,0.0058,0.003,0.0109,-0.0119,0.0037,0.0036,0.0035,0.0034,0.0034,0,-0.1478,-0.1424,-0.1265,-0.1067,-0.0954,-0.0873,-0.0696,-0.0591,-0.0462,-0.032,-0.0202,-0.0022,0.01,0.0175,0.0274,0.0297,0.031,0.0298,0.0295,0.0355,0.0182,0.0183,0.0368,0.0368,0.0368,0.0368,0.0368,0.0368,-0.1368,-0.1238,-0.1207,-0.1013,-0.09,-0.0744,-0.0666,-0.0549,-0.0422,-0.0225,-0.0072,0.003,0.0133,0.0323,0.0436,0.0454,0.0507,0.0481,0.0502,0.037,0.0347,0.0326,0.0327,0.0539,0.0539,0.073,0.0731,0.0732]}],[{"header":{"parameterUnit":"m.s-1","parameterCategory":2,"la1":30.2991,"la2":30.254,"lo1":-89.0895,"lo2":-89.0444,"dy":0.0017,"dx":0.0017,"nx":28,"ny":28,"refTime":"2025-07-15T09:00:00:Z","depth":"2","parameterNumber":2,"parameterNumberName":"U-component_of_CURRENTS"},"data":[0,0,0,0,0,0,0,0,0,0,0,0,0,0,0,0,0,0,0,0,0,0,0,0,0,0,0,0,0,0,0,0,0,0,0,0,0,0,0,0,0,0,0,0,0,0,0,0,0,0,0,0,0,0,0,0,0,0,0.0681,0.0679,0,0.0635,0.0637,0.0638,0.0786,0.0787,0.0789,0.0791,0.0807,0.0806,0.0805,0,0,0,0,0,0,0,0,0,0,0,0,0,0.0576,0.0582,0.0682,0.0678,0.0675,0.0634,0.0637,0.0639,0.0785,0.0787,0.079,0.0792,0.0807,0.0806,0.0805,0,0,0,0,0,0,0,0,0,0,0,0,0,0.0613,0.0583,0.0682,0.0722,0.0723,0.0634,0.0637,0.0639,0.0785,0.0787,0.079,0.0793,0.0808,0.0806,0.0804,0.074,0,0,0.0799,0.0798,0,0,0,0,0,0,0,0,0.0612,0.0622,0.0719,0.0718,0.0719,0.0693,0.0603,0.0666,0.0784,0.0792,0.0791,0.0794,0.0753,0.0756,0.0783,0.074,0.0741,0.0799,0.0797,0.0797,0.0796,0,0,0,0,0,0,0,0.061,0.0622,0.0693,0.0715,0.0714,0.0628,0.0643,0.0617,0.0783,0.0792,0.0795,0.0742,0.0759,0.0784,0.0784,0.0741,0.0799,0.0797,0.0796,0.0795,0.0794,0.0795,0,0,0,0,0,0,0.0571,0.0622,0.0694,0.0689,0.0637,0.0627,0.0645,0.0723,0.0782,0.0784,0.0739,0.0748,0.0786,0.0786,0.0784,0.0766,0.0797,0.0795,0.0794,0.0792,0.0794,0.0795,0,0,0,0,0,0,0.0571,0.0584,0.0695,0.0621,0.0626,0.0626,0.0711,0.072,0.0764,0.0735,0.0747,0.0774,0.0788,0.0787,0.0785,0.0766,0.0794,0.0792,0.0791,0.0793,0.0794,0.0693,0,0,0,0,0,0,0.0571,0.0588,0.0609,0.0624,0.0628,0.0634,0.0706,0.0716,0.0711,0.0725,0.0766,0.0771,0.079,0.0788,0.0784,0.0764,0.0791,0.079,0.0792,0.0794,0.0695,0.0691,0.0687,0,0,0,0,0,0.057,0.0594,0.0615,0.0618,0.0672,0.0628,0.0627,0.0649,0.071,0.0711,0.0761,0.0771,0.08,0.0786,0.0781,0.076,0.0789,0.0791,0.0794,0.0696,0.0691,0.0687,0,0,0,0,0,0,0.0537,0.0608,0.0633,0.0676,0.0638,0.0642,0.0624,0.0647,0.0693,0.0717,0.0756,0.0761,0.0758,0.078,0.0765,0.0777,0.0805,0.0807,0.0734,0.0729,0.0725,0.073,0.079,0,0,0,0,0,0.0535,0.0549,0.0602,0.0573,0.062,0.063,0.0609,0.0619,0.0642,0.067,0.0709,0.0751,0.0759,0.0762,0.0775,0.0753,0.0822,0.0752,0.0748,0.0744,0.0752,0.0854,0.086,0.0803,0.0803,0.0803,0,0,0.0477,0.05,0.0502,0.0554,0.0571,0.0588,0.0638,0.0606,0.0581,0.0653,0.0684,0.0724,0.0753,0.0748,0.075,0.0763,0.0797,0.0747,0.0743,0.0753,0.0857,0.0863,0.0868,0.0804,0.0804,0.0804,0,0,0.0357,0.0456,0.0471,0.0485,0.0475,0.0493,0.0493,0.0549,0.0576,0.0561,0.0632,0.0671,0.068,0.0714,0.0722,0.0704,0.0772,0.0717,0.0689,0.0786,0.0791,0.0797,0.0881,0.0894,0.0715,0.0715,0.0715,0,0.0297,0.0347,0.0428,0.0459,0.0456,0.0474,0.0498,0.0492,0.0502,0.0541,0.0557,0.0659,0.0663,0.0687,0.0683,0.0688,0.0765,0.0688,0.0779,0.0786,0.0793,0.0878,0.0894,0.071,0.0711,0.0711,0.0712,0,0.0227,0.0267,0.0272,0.0349,0.0361,0.034,0.0392,0.0426,0.0461,0.0462,0.0517,0.055,0.0648,0.0625,0.0628,0.0686,0.073,0.0755,0.0779,0.0792,0.0881,0.09,0.0704,0.0705,0.0707,0.0708,0,0,0.0184,0.0226,0.0245,0.0304,0.0324,0.0367,0.0348,0.0392,0.0465,0.0438,0.0532,0.0505,0.059,0.0611,0.0648,0.0682,0.0764,0.0731,0.0738,0.0794,0.099,0.0883,0.0894,0.0815,0.0818,0.082,0.1027,0,0.013,0.0168,0.0189,0.0226,0.0319,0.0364,0.0363,0.0386,0.043,0.0522,0.0523,0.0597,0.0558,0.0643,0.0667,0.0757,0.0813,0.0706,0.0989,0.0997,0.0883,0.0911,0.0731,0.0888,0.1046,0.1049,0.1052,0,0.0157,0.0177,0.0201,0.0308,0.0371,0.0376,0.0538,0.0521,0.0584,0.063,0.0693,0.0725,0.0767,0.0752,0.0886,0.0831,0.0913,0.0949,0.096,0.091,0.0924,0.0908,0.0918,0.1084,0.1082,0.1079,0.1077,0,0.0208,0.0258,0.0267,0.029,0.036,0.0435,0.0499,0.0583,0.0618,0.0731,0.0802,0.0858,0.093,0.1007,0.1058,0.1014,0.1211,0.1185,0.1162,0.1157,0.1082,0.1063,0.1312,0.1312,0.1311,0.1311,0.131,0,0.0214,0.0282,0.0316,0.0349,0.0462,0.052,0.0637,0.0733,0.0798,0.085,0.0886,0.096,0.1001,0.1095,0.1135,0.1201,0.1305,0.1166,0.1204,0.1039,0.1015,0.1249,0.1239,0.1319,0.1317,0.1315,0.1314,0,0.0279,0.0255,0.0351,0.0439,0.0481,0.0605,0.072,0.08,0.0868,0.0962,0.099,0.1061,0.1178,0.1225,0.1366,0.1307,0.1383,0.1399,0.1178,0.1181,0.1244,0.1227,0.1383,0.1381,0.138,0.1378,0.1377,0,0.031,0.0327,0.0431,0.0516,0.0562,0.0699,0.0758,0.0834,0.0882,0.1013,0.1048,0.1181,0.124,0.1372,0.1335,0.14,0.1447,0.1232,0.1074,0.123,0.1254,0.1239,0.1224,0.0958,0.0954,0.095,0.0947,0,0.0431,0.0439,0.0519,0.0607,0.0714,0.0793,0.0901,0.0911,0.0962,0.1025,0.1119,0.118,0.1272,0.12,0.1237,0.123,0.1181,0.1151,0.145,0.0927,0.0835,0.0855,0.0854,0.0914,0.0917,0.0919,0.0921,0.0923,0.058,0.0651,0.0704,0.078,0.0851,0.0882,0.0936,0.0962,0.0989,0.1008,0.108,0.107,0.1045,0.097,0.0998,0.0975,0.1041,0.0912,0.0923,0.0938,0.0811,0.0716,0.0751,0.0753,0.0755,0.0757,0.0758,0,0.079,0.0819,0.0891,0.0966,0.0954,0.0996,0.0998,0.0961,0.0937,0.092,0.0933,0.0749,0.0691,0.0735,0.064,0.0619,0.0619,0.058,0.0555,0.0584,0.0611,0.0468,0.0317,0.0317,0.0317,0.0317,0,0,0.0955,0.1036,0.0979,0.0998,0.1028,0.1017,0.0999,0.0925,0.0844,0.0719,0.0619,0.0587,0.0608,0.0423,0.0415,0.0369,0.0485,0.0341,0.0673,0.0668,0.0696,0.0757,0.0562,0,0,0,0,0]},{"header":{"parameterUnit":"m.s-1","parameterCategory":2,"la1":30.2991,"la2":30.254,"lo1":-89.0895,"lo2":-89.0444,"dy":0.0017,"dx":0.0017,"nx":28,"ny":28,"refTime":"2025-07-15T09:00:00:Z","depth":"2","parameterNumber":3,"parameterNumberName":"V-component_of_CURRENTS"},"data":[0,0,0,0,0,0,0,0,0,0,0,0,0,0,0,0,0,0,0,0,0,0,0,0,0,0,0,0,0,0,0,0,0,0,0,0,0,0,0,0,0,0,0,0,0,0,0,0,0,0,0,0,0,0,0,0,0,0,-0.0106,-0.0104,0,-0.0044,-0.0046,-0.0047,-0.0116,-0.0116,-0.0117,-0.0117,-0.0015,-0.0012,-0.0009,0,0,0,0,0,0,0,0,0,0,0,0,0,0.0081,0.0073,-0.0107,-0.0104,-0.0101,-0.0044,-0.0046,-0.0047,-0.0116,-0.0116,-0.0117,-0.0117,-0.0017,-0.0013,-0.0009,0,0,0,0,0,0,0,0,0,0,0,0,0,0.0034,0.0071,-0.0107,-0.0111,-0.0109,-0.0044,-0.0046,-0.0048,-0.0115,-0.0116,-0.0117,-0.0118,-0.0018,-0.0013,-0.0009,0.0035,0,0,0.0006,0.0008,0,0,0,0,0,0,0,0,0.0036,0.0023,-0.0113,-0.011,-0.0108,-0.0068,0.0059,-0.001,-0.0115,-0.0138,-0.0117,-0.0118,-0.0013,-0.0009,-0.003,0.004,0.0044,0.0006,0.0009,0.0011,0.0013,0,0,0,0,0,0,0,0.0038,0.0023,-0.0106,-0.0109,-0.0106,0.0012,-0.0002,0.0045,-0.009,-0.0136,-0.0135,-0.009,-0.0015,-0.0035,-0.0027,0.0045,0.0006,0.001,0.0013,0.0015,0.0053,0.0052,0,0,0,0,0,0,0.0058,0.0023,-0.0107,-0.0101,-0.001,0.0009,-0.0007,-0.0099,-0.0091,-0.0084,-0.009,-0.0093,-0.0042,-0.0033,-0.0024,0.0012,0.0011,0.0016,0.0018,0.0055,0.0053,0.0051,0,0,0,0,0,0,0.0059,0.004,-0.0109,-0.0009,-0.0017,0.0006,-0.0096,-0.0097,-0.0148,-0.0052,-0.005,-0.0139,-0.0042,-0.003,-0.0006,0.0017,0.0018,0.0022,0.0057,0.0055,0.0052,0.0097,0,0,0,0,0,0,0.0061,0.0036,-0.0017,-0.0014,-0.0022,-0.0067,-0.0092,-0.0094,-0.0105,-0.0112,-0.0092,-0.0083,-0.0042,-0.0014,-0.0002,0.0024,0.0026,0.006,0.0056,0.0053,0.0098,0.0096,0.0094,0,0,0,0,0,0.0065,-0.0012,-0.0025,-0.0035,-0.0105,-0.0064,-0.0061,-0.0055,-0.0107,-0.0114,-0.012,-0.0085,-0.0028,-0.0011,0.0004,0.0031,0.0061,0.0057,0.0053,0.0098,0.0096,0.0094,0,0,0,0,0,0,0.0058,-0.0023,-0.0038,-0.0135,-0.0088,-0.0067,-0.0068,-0.0078,-0.0099,-0.0119,-0.0088,-0.0076,-0.0051,-0.0037,-0.0019,0.0018,0.0015,0.0014,0.0044,0.0042,0.0041,0.0099,0.003,0,0,0,0,0,0.0033,-0.0018,-0.0059,-0.0076,-0.0121,-0.011,-0.0096,-0.0087,-0.0084,-0.0101,-0.0097,-0.0091,-0.0054,-0.0029,-0.0005,0.0034,0.005,0.0045,0.0044,0.0043,0.0091,0.0106,0.0113,0.0038,0.0038,0.0038,0,0,0.0063,0.0025,0.0003,-0.0068,-0.0076,-0.009,-0.0116,-0.0101,-0.0053,-0.0076,-0.0077,-0.0093,-0.0053,-0.0014,-0.0002,0.0006,0.0062,0.0038,0.0038,0.0088,0.0103,0.0111,0.0119,0.0035,0.0035,0.0036,0,0,0.0123,-0.0002,-0.005,-0.0058,-0.0052,-0.0046,-0.0059,-0.0097,-0.0091,-0.0065,-0.008,-0.0083,-0.0056,-0.0007,0.0025,0.0026,0.0045,-0.0003,0.0066,0.0078,0.0086,0.0094,0.0096,0.0104,0.0008,0.0008,0.0008,0,0.0152,0.0088,-0.0018,-0.0065,-0.0032,-0.0052,-0.0056,-0.0042,-0.0026,0.0008,-0.0058,-0.0048,-0.0029,0.0065,0.0057,0.0038,0.0027,0.0083,0.0084,0.0092,0.0099,0.01,0.0108,0.001,0.001,0.0009,0.0009,0,0.0176,0.0127,0.0104,0.003,0.0021,0.0059,0.0033,0.0019,0.0001,0.0058,0.0088,0.0067,0.0062,0.0068,0.0079,0.0137,0.0104,0.0076,0.0108,0.0111,0.0108,0.0116,0.0012,0.0012,0.0011,0.0011,0,0,0.0192,0.0135,0.0118,0.0093,0.0083,0.005,0.0105,0.0166,0.017,0.0188,0.0222,0.0266,0.0195,0.022,0.0188,0.0234,0.0257,0.0178,0.0178,0.0216,0.0267,0.028,0.0289,0.0216,0.0218,0.022,0.0236,0,0.0262,0.0217,0.0197,0.0199,0.0133,0.0133,0.0192,0.0239,0.0252,0.026,0.0313,0.0325,0.0277,0.0223,0.0254,0.0255,0.0283,0.0255,0.023,0.023,0.0271,0.0302,0.0263,0.0278,0.0244,0.0245,0.0246,0,0.0247,0.0228,0.023,0.0219,0.018,0.0193,0.0182,0.0247,0.0325,0.033,0.0342,0.0343,0.0405,0.0321,0.0362,0.0331,0.0301,0.0319,0.0317,0.0338,0.026,0.027,0.0293,0.0259,0.0258,0.0257,0.0256,0,0.0239,0.0221,0.0249,0.0242,0.0228,0.0219,0.0225,0.0263,0.0319,0.035,0.0348,0.0403,0.0382,0.0393,0.038,0.0355,0.0431,0.0381,0.0384,0.0382,0.0358,0.0352,0.0423,0.0423,0.0423,0.0423,0.0423,0,0.0302,0.0273,0.0217,0.0202,0.0199,0.0165,0.0185,0.0187,0.0248,0.0325,0.0341,0.0363,0.0397,0.0429,0.0412,0.0426,0.0425,0.0435,0.0407,0.0364,0.0359,0.0352,0.0344,0.0424,0.0423,0.0423,0.0423,0,0.0288,0.0292,0.0233,0.0192,0.0187,0.0129,0.0153,0.017,0.0209,0.0269,0.0295,0.0367,0.0404,0.0437,0.0475,0.0457,0.0487,0.0484,0.0436,0.0405,0.0419,0.0412,0.0502,0.0503,0.0504,0.0504,0.0505,0,0.03,0.0268,0.0189,0.0144,0.0127,0.0081,0.011,0.0149,0.0191,0.0274,0.0326,0.0387,0.0439,0.0506,0.0518,0.0527,0.0505,0.0491,0.0465,0.0474,0.0437,0.0428,0.042,0.0423,0.0423,0.0422,0.0422,0,0.0239,0.0191,0.0146,0.0137,0.0091,0.0079,0.0098,0.0156,0.0237,0.0287,0.0378,0.0435,0.0484,0.0516,0.0534,0.053,0.0495,0.0491,0.0519,0.0418,0.0403,0.0365,0.0359,0.0422,0.0422,0.0422,0.0422,0.0422,0.015,0.011,0.0081,0.0097,0.0077,0.0112,0.0111,0.0175,0.0269,0.0386,0.0443,0.0509,0.0511,0.0558,0.0528,0.0488,0.0513,0.0479,0.0477,0.0476,0.0473,0.0463,0.049,0.0491,0.0491,0.0491,0.0492,0,0.006,0.0072,0.0061,0.0048,0.0091,0.0074,0.0162,0.0193,0.0307,0.0401,0.049,0.0517,0.0553,0.0518,0.0453,0.0445,0.0422,0.0424,0.0375,0.0377,0.0379,0.0369,0.0359,0.0358,0.0358,0.0357,0,0,-0.0022,-0.0007,0.0069,0.0122,0.0112,0.0127,0.0172,0.0216,0.0305,0.0423,0.0476,0.0613,0.0563,0.0494,0.0449,0.038,0.0381,0.0375,0.0485,0.0433,0.0434,0.0417,0.0407,0,0,0,0,0]}],[{"header":{"parameterUnit":"m.s-1","parameterCategory":2,"la1":30.2991,"la2":30.254,"lo1":-89.0895,"lo2":-89.0444,"dy":0.0017,"dx":0.0017,"nx":28,"ny":28,"refTime":"2025-07-15T09:00:00:Z","depth":"4","parameterNumber":2,"parameterNumberName":"U-component_of_CURRENTS"},"data":[0,0,0,0,0,0,0,0,0,0,0,0,0,0,0,0,0,0,0,0,0,0,0,0,0,0,0,0,0,0,0,0,0,0,0,0,0,0,0,0,0,0,0,0,0,0,0,0,0,0,0,0,0,0,0,0,0,0,-0.0622,-0.0622,0,-0.0603,-0.0603,-0.0603,-0.0607,-0.0607,-0.0607,-0.0607,-0.075,-0.0754,-0.0758,0,0,0,0,0,0,0,0,0,0,0,0,0,-0.0639,-0.0639,-0.0622,-0.0622,-0.0621,-0.0603,-0.0603,-0.0603,-0.0607,-0.0607,-0.0607,-0.0607,-0.0749,-0.0753,-0.0758,0,0,0,0,0,0,0,0,0,0,0,0,0,-0.0631,-0.0639,-0.0622,-0.0617,-0.0616,-0.0603,-0.0603,-0.0603,-0.0607,-0.0607,-0.0607,-0.0607,-0.0747,-0.0753,-0.0759,-0.0796,0,0,-0.0776,-0.0779,0,0,0,0,0,0,0,0,-0.0632,-0.0631,-0.0619,-0.0618,-0.0616,-0.0604,-0.0661,-0.0674,-0.0607,-0.0615,-0.0607,-0.0607,-0.0713,-0.0722,-0.0722,-0.0803,-0.0809,-0.0777,-0.078,-0.0783,-0.0784,0,0,0,0,0,0,0,-0.0632,-0.0632,-0.0619,-0.0618,-0.0617,-0.0608,-0.0607,-0.0663,-0.0671,-0.0614,-0.0614,-0.0605,-0.0715,-0.0717,-0.0726,-0.0811,-0.0777,-0.0782,-0.0785,-0.0788,-0.0921,-0.0921,0,0,0,0,0,0,-0.0627,-0.0632,-0.062,-0.0618,-0.0619,-0.0607,-0.0607,-0.0611,-0.0667,-0.0673,-0.0605,-0.0605,-0.0707,-0.0719,-0.0731,-0.0777,-0.0783,-0.0788,-0.0792,-0.0921,-0.0921,-0.0921,0,0,0,0,0,0,-0.0628,-0.0627,-0.062,-0.062,-0.0618,-0.0607,-0.0612,-0.0611,-0.0624,-0.0657,-0.0667,-0.062,-0.0707,-0.0723,-0.0783,-0.0783,-0.0791,-0.0796,-0.0921,-0.0921,-0.0921,-0.0871,0,0,0,0,0,0,-0.0629,-0.0628,-0.064,-0.0621,-0.0618,-0.0622,-0.0611,-0.061,-0.0616,-0.0617,-0.0674,-0.0685,-0.0708,-0.0774,-0.0789,-0.0791,-0.0801,-0.0921,-0.0921,-0.0921,-0.0872,-0.0869,-0.0866,0,0,0,0,0,-0.063,-0.0636,-0.0641,-0.0639,-0.0633,-0.0621,-0.0621,-0.0614,-0.0617,-0.0627,-0.0659,-0.0684,-0.0785,-0.078,-0.0797,-0.08,-0.0921,-0.0921,-0.0921,-0.0874,-0.087,-0.0866,0,0,0,0,0,0,-0.0649,-0.0636,-0.0641,-0.0645,-0.064,-0.0621,-0.0625,-0.0624,-0.0654,-0.0668,-0.0698,-0.0713,-0.0748,-0.0793,-0.0786,-0.0837,-0.0853,-0.0856,-0.0811,-0.0808,-0.0805,-0.0864,-0.0805,0,0,0,0,0,-0.0659,-0.0668,-0.0651,-0.066,-0.0656,-0.0648,-0.0646,-0.0647,-0.0661,-0.0673,-0.0693,-0.0732,-0.076,-0.0801,-0.0823,-0.0882,-0.0943,-0.0891,-0.0888,-0.0886,-0.0945,-0.1057,-0.1071,-0.0921,-0.0921,-0.0921,0,0,-0.0669,-0.0665,-0.067,-0.0666,-0.0663,-0.0675,-0.0649,-0.0655,-0.0681,-0.069,-0.0728,-0.0717,-0.0766,-0.0797,-0.0821,-0.0844,-0.0938,-0.0886,-0.0883,-0.0945,-0.1059,-0.1074,-0.1088,-0.0922,-0.0922,-0.0922,0,0,-0.0682,-0.069,-0.0697,-0.0705,-0.0704,-0.0703,-0.0709,-0.0692,-0.0703,-0.0709,-0.0726,-0.0754,-0.0757,-0.0828,-0.0857,-0.0876,-0.0899,-0.0832,-0.0896,-0.1001,-0.1016,-0.103,-0.1033,-0.1048,-0.0855,-0.0855,-0.0855,0,-0.0696,-0.0709,-0.0698,-0.0714,-0.0729,-0.072,-0.0743,-0.0757,-0.0762,-0.0794,-0.0714,-0.0774,-0.0792,-0.0921,-0.0878,-0.0879,-0.0887,-0.0898,-0.1001,-0.1017,-0.1032,-0.1033,-0.1051,-0.0852,-0.0853,-0.0853,-0.0853,0,-0.0702,-0.0737,-0.0743,-0.077,-0.0785,-0.0804,-0.0819,-0.0839,-0.0808,-0.0818,-0.0867,-0.087,-0.0916,-0.0895,-0.087,-0.0993,-0.0937,-0.0961,-0.1013,-0.1045,-0.1041,-0.106,-0.0849,-0.085,-0.085,-0.0851,0,0,-0.0679,-0.0736,-0.0744,-0.0794,-0.0823,-0.0845,-0.0896,-0.0949,-0.1017,-0.0974,-0.105,-0.1043,-0.1023,-0.1059,-0.1056,-0.1137,-0.1173,-0.1064,-0.1071,-0.1073,-0.131,-0.1055,-0.1051,-0.1186,-0.1191,-0.1196,-0.123,0,-0.0693,-0.0745,-0.0767,-0.0855,-0.0891,-0.093,-0.0986,-0.1048,-0.1053,-0.112,-0.116,-0.1179,-0.1099,-0.1074,-0.1157,-0.1175,-0.1234,-0.1157,-0.128,-0.1283,-0.1061,-0.1072,-0.1212,-0.1245,-0.1249,-0.1252,-0.1255,0,-0.0683,-0.0737,-0.0806,-0.0932,-0.095,-0.099,-0.1106,-0.1146,-0.1258,-0.125,-0.1309,-0.1306,-0.14,-0.13,-0.1423,-0.1351,-0.1325,-0.1339,-0.1342,-0.1163,-0.1069,-0.1232,-0.129,-0.1287,-0.1285,-0.1282,-0.128,0,-0.0672,-0.077,-0.0838,-0.0876,-0.0999,-0.104,-0.1069,-0.1172,-0.1206,-0.1311,-0.1307,-0.1459,-0.1439,-0.1524,-0.1447,-0.1433,-0.1554,-0.1566,-0.1343,-0.1321,-0.1566,-0.1552,-0.169,-0.169,-0.169,-0.169,-0.1689,0,-0.0658,-0.0738,-0.0837,-0.0889,-0.0966,-0.1035,-0.1099,-0.1158,-0.1238,-0.1246,-0.1341,-0.1327,-0.1476,-0.1516,-0.1519,-0.1437,-0.1608,-0.1367,-0.1339,-0.1523,-0.1506,-0.1573,-0.1559,-0.1691,-0.169,-0.169,-0.169,0,-0.0632,-0.0694,-0.0821,-0.0953,-0.0959,-0.1005,-0.1022,-0.1069,-0.1131,-0.1138,-0.1134,-0.1231,-0.121,-0.1345,-0.1448,-0.1438,-0.1461,-0.139,-0.151,-0.1485,-0.1146,-0.113,-0.1205,-0.1197,-0.119,-0.1184,-0.1179,0,-0.0617,-0.0672,-0.0835,-0.0841,-0.0879,-0.0908,-0.0899,-0.0973,-0.0963,-0.0998,-0.0972,-0.0993,-0.1016,-0.1024,-0.115,-0.1226,-0.12,-0.1249,-0.1276,-0.1144,-0.1111,-0.1104,-0.1097,-0.1168,-0.1167,-0.1165,-0.1163,0,-0.0616,-0.0697,-0.0787,-0.0772,-0.0773,-0.0792,-0.0748,-0.074,-0.077,-0.0849,-0.0757,-0.0775,-0.0755,-0.0843,-0.0891,-0.0941,-0.1272,-0.1178,-0.1194,-0.122,-0.1101,-0.1073,-0.1074,-0.1139,-0.1143,-0.1145,-0.1146,0,-0.0605,-0.0658,-0.0719,-0.07,-0.0689,-0.0641,-0.0661,-0.0588,-0.0596,-0.0628,-0.055,-0.0596,-0.0657,-0.0678,-0.0711,-0.0753,-0.0766,-0.0832,-0.0867,-0.0895,-0.0779,-0.0582,-0.0451,0,0,0,0,0,-0.0554,-0.0571,-0.0588,-0.059,-0.0575,-0.056,-0.0538,-0.0561,-0.0572,-0.0466,-0.0512,-0.0453,-0.0463,-0.0501,-0.0487,-0.0594,-0.0802,-0.058,-0.0903,-0.1007,-0.1035,-0.0928,0,0,0,0,0,0,-0.0515,-0.0536,-0.0577,-0.0474,-0.044,-0.0413,-0.0419,-0.0443,-0.0379,-0.0396,-0.0401,-0.0423,-0.0452,-0.0455,-0.0476,-0.0491,-0.0686,-0.0611,-0.0609,-0.0991,-0.1016,-0.1038,-0.0939,0,0,0,0,0]},{"header":{"parameterUnit":"m.s-1","parameterCategory":2,"la1":30.2991,"la2":30.254,"lo1":-89.0895,"lo2":-89.0444,"dy":0.0017,"dx":0.0017,"nx":28,"ny":28,"refTime":"2025-07-15T09:00:00:Z","depth":"4","parameterNumber":3,"parameterNumberName":"V-component_of_CURRENTS"},"data":[0,0,0,0,0,0,0,0,0,0,0,0,0,0,0,0,0,0,0,0,0,0,0,0,0,0,0,0,0,0,0,0,0,0,0,0,0,0,0,0,0,0,0,0,0,0,0,0,0,0,0,0,0,0,0,0,0,0,0.0576,0.0575,0,0.0538,0.0537,0.0537,0.0557,0.0558,0.0559,0.056,0.0697,0.07,0.0702,0,0,0,0,0,0,0,0,0,0,0,0,0,0.0583,0.0583,0.0576,0.0575,0.0575,0.0538,0.0537,0.0537,0.0557,0.0558,0.056,0.0561,0.0696,0.07,0.0703,0,0,0,0,0,0,0,0,0,0,0,0,0,0.0565,0.0583,0.0576,0.0581,0.0581,0.0538,0.0537,0.0537,0.0557,0.0558,0.056,0.0561,0.0695,0.0699,0.0703,0.0694,0,0,0.0715,0.0717,0,0,0,0,0,0,0,0,0.0567,0.0565,0.0581,0.0581,0.0581,0.0555,0.059,0.0598,0.0556,0.0565,0.056,0.0562,0.0665,0.0672,0.0657,0.0701,0.0707,0.0715,0.0718,0.072,0.0721,0,0,0,0,0,0,0,0.0568,0.0566,0.056,0.058,0.058,0.0557,0.0557,0.0591,0.0609,0.0564,0.0566,0.0563,0.0667,0.0653,0.0661,0.0709,0.0715,0.0719,0.0721,0.0723,0.0856,0.0858,0,0,0,0,0,0,0.0577,0.0568,0.0561,0.0559,0.0578,0.0556,0.0556,0.0561,0.0605,0.0612,0.0561,0.0564,0.0646,0.0656,0.0666,0.0725,0.072,0.0723,0.0725,0.0855,0.0857,0.0858,0,0,0,0,0,0,0.0577,0.0577,0.0563,0.0563,0.0559,0.0555,0.0559,0.0559,0.058,0.0601,0.0611,0.0588,0.0647,0.0661,0.0751,0.0729,0.0725,0.0729,0.0854,0.0856,0.0857,0.0802,0,0,0,0,0,0,0.0578,0.0577,0.0584,0.0564,0.056,0.0528,0.0558,0.0557,0.0574,0.0578,0.0626,0.0638,0.065,0.0745,0.0754,0.0734,0.0732,0.0852,0.0855,0.0857,0.0802,0.0802,0.0801,0,0,0,0,0,0.0578,0.0569,0.0585,0.0584,0.057,0.0527,0.0521,0.0523,0.0574,0.0557,0.0642,0.0638,0.0764,0.075,0.0761,0.0741,0.0851,0.0854,0.0857,0.0802,0.0802,0.0801,0,0,0,0,0,0,0.0565,0.057,0.0587,0.0579,0.0556,0.0531,0.0521,0.0543,0.0589,0.0635,0.0671,0.0688,0.0746,0.0772,0.0755,0.079,0.08,0.0805,0.0755,0.0754,0.0754,0.0716,0.0735,0,0,0,0,0,0.0569,0.0574,0.0561,0.0554,0.0549,0.0551,0.0543,0.0558,0.0591,0.0612,0.0691,0.0753,0.0755,0.0784,0.0818,0.0853,0.0873,0.0846,0.0845,0.0844,0.0824,0.0843,0.0841,0.0867,0.0867,0.0867,0,0,0.0562,0.0566,0.0569,0.0553,0.0547,0.0529,0.055,0.0553,0.0561,0.0626,0.0727,0.0769,0.077,0.0799,0.0825,0.0825,0.0858,0.0848,0.0846,0.0826,0.0845,0.0842,0.084,0.0869,0.0868,0.0868,0,0,0.0527,0.0557,0.0541,0.0536,0.0538,0.0534,0.0547,0.0586,0.062,0.0698,0.0735,0.0783,0.0856,0.0832,0.0815,0.084,0.0857,0.0856,0.0814,0.0833,0.083,0.0827,0.0882,0.0884,0.085,0.085,0.085,0,0.0517,0.0512,0.0522,0.051,0.0511,0.0544,0.0531,0.0546,0.0635,0.0659,0.0738,0.0818,0.0846,0.0786,0.0793,0.0829,0.0865,0.0806,0.0827,0.0825,0.0823,0.088,0.0883,0.0848,0.0848,0.0848,0.0848,0,0.0469,0.048,0.0471,0.0477,0.0467,0.047,0.0492,0.0541,0.0628,0.0656,0.0707,0.077,0.0797,0.0803,0.0801,0.0776,0.0817,0.0823,0.0816,0.0816,0.0878,0.0882,0.0844,0.0845,0.0846,0.0846,0,0,0.0426,0.0434,0.044,0.0444,0.0472,0.0454,0.0471,0.0464,0.047,0.0595,0.0605,0.0632,0.0696,0.0684,0.0702,0.0717,0.0751,0.0765,0.0767,0.0797,0.0829,0.0681,0.0673,0.0764,0.0764,0.0764,0.0888,0,0.0392,0.0368,0.0382,0.0374,0.0371,0.0405,0.0399,0.0414,0.0462,0.0503,0.054,0.0579,0.0631,0.066,0.0674,0.0731,0.0756,0.0719,0.0844,0.0848,0.0695,0.0669,0.0763,0.0892,0.0893,0.0894,0.0894,0,0.035,0.0349,0.0352,0.0336,0.0334,0.0369,0.0367,0.0356,0.037,0.0407,0.0442,0.0489,0.052,0.0584,0.0675,0.0657,0.0735,0.0789,0.0795,0.0667,0.0704,0.0888,0.0902,0.0902,0.0901,0.0901,0.09,0,0.0325,0.0318,0.0333,0.0346,0.0345,0.0387,0.0389,0.0387,0.0357,0.0386,0.0386,0.043,0.0486,0.0572,0.0673,0.0698,0.0774,0.0827,0.0767,0.0762,0.0885,0.0886,0.088,0.0879,0.0879,0.0879,0.0878,0,0.0285,0.0286,0.0368,0.0387,0.0429,0.0417,0.0428,0.0426,0.0389,0.0321,0.0377,0.033,0.0488,0.0532,0.0646,0.0694,0.0762,0.0738,0.0758,0.0869,0.0866,0.0891,0.089,0.0884,0.0882,0.0882,0.0881,0,0.026,0.029,0.0339,0.0406,0.0445,0.0504,0.0492,0.0434,0.042,0.0338,0.0348,0.0308,0.0338,0.0454,0.0585,0.0642,0.0719,0.0719,0.0829,0.0859,0.0726,0.0722,0.0701,0.0696,0.0692,0.0688,0.0686,0,0.0233,0.0266,0.0413,0.0481,0.0561,0.0615,0.0597,0.0523,0.0419,0.0282,0.021,0.021,0.0194,0.0316,0.0398,0.0575,0.0585,0.0671,0.0688,0.0672,0.0696,0.0699,0.07,0.0679,0.0678,0.0677,0.0676,0,0.0229,0.0336,0.0403,0.0525,0.0602,0.058,0.0551,0.0484,0.031,0.0267,0.0137,0.0152,0.0137,0.0235,0.0344,0.0461,0.0642,0.0631,0.0642,0.0659,0.0647,0.0674,0.0681,0.0662,0.0664,0.0665,0.0666,0,0.0285,0.0361,0.0469,0.0573,0.0624,0.0577,0.0544,0.0412,0.0308,0.0147,0.0087,0.0089,0.0089,0.0162,0.024,0.0341,0.0389,0.0494,0.0514,0.053,0.0404,0.0359,0.0278,0,0,0,0,0,0.0345,0.0405,0.047,0.0569,0.0583,0.0593,0.0483,0.0392,0.0235,0.0159,0.0131,0.0106,0.0156,0.014,0.0226,0.0154,0.0394,0.0251,0.0526,0.0584,0.0601,0.0461,0,0,0,0,0,0,0.0389,0.0477,0.0475,0.0517,0.0565,0.0512,0.0462,0.0345,0.0277,0.0178,0.0212,0.0162,0.0218,0.0163,0.0256,0.0258,0.0446,0.0253,0.0254,0.0575,0.059,0.0603,0.0465,0,0,0,0,0]}]]